Minneapolis Crystal, MN

10:20 AM CST on February 24, 2018 (GMT -0600)
Crystal

Weather History for KMIC - December, 2012

Change the Weather History Date:

Saturday, December 29, 2012

  Actual Average Record
Temperature  
Mean Temperature 12 °F -  
Max Temperature 19 °F 23 °F 53 °F (1999)
Min Temperature 3 °F 9 °F -11 °F (2013)
Degree Days  
Heating Degree Days 53    
Moisture  
Dew Point 8 °F    
Average Humidity 80    
Maximum Humidity 88    
Minimum Humidity 68    
Precipitation  
Precipitation 0.00 in - - ()
Sea Level Pressure  
Sea Level Pressure 30.11 in    
Wind  
Wind Speed 6 mph (WSW)    
Max Wind Speed 10 mph    
Max Gust Speed -    
Visibility 8 miles    
Events Snow    
Averages and records for this station are not official NWS values.
T = Trace of Precipitation, MM = Missing Value Source: NWS Daily Summary

Daily Weather History Graph

Daily Weather History Graph

Search for Another Location

Airport or City:

Trip Planner

Search our weather history database for the weather conditions in past years. The results will help you decide how hot, cold, wet, or windy it might be!

Date:

Astronomy

Dec. 29, 2012 Rise Set
Actual Time 7:51 AM CST 4:39 PM CST
Civil Twilight 7:17 AM CST 5:13 PM CST
Nautical Twilight 6:40 AM CST 5:50 PM CST
Astronomical Twilight 6:04 AM CST 6:26 PM CST
Moon 6:18 PM CST (12/29) 8:21 AM CST (12/29)
Length of Visible Light 9h 55m
Length of Day
8h 48m
Full, 98% of the Moon is Illuminated
Dec 29
Full
Jan 4
Last Quarter
Jan 11
New
Jan 18
First Quarter
Jan 26
Full

Hourly Weather History & Observations

Time (CST) Temp. Windchill Dew Point Humidity Pressure Visibility Wind Dir Wind Speed Gust Speed Precip Events Conditions
12:53 AM 15.1 °F 7.7 °F 12.0 °F 88% 30.06 in 9.0 mi WNW 4.6 mph - N/A   Overcast
1:53 AM 16.0 °F 7.4 °F 12.9 °F 88% 30.05 in 10.0 mi NW 5.8 mph - N/A   Overcast
2:53 AM 17.1 °F 8.7 °F 14.0 °F 88% 30.06 in 10.0 mi WNW 5.8 mph - N/A   Overcast
3:53 AM 18.0 °F 9.8 °F 14.0 °F 84% 30.07 in 10.0 mi WNW 5.8 mph - N/A   Overcast
4:53 AM 19.0 °F 12.3 °F 12.0 °F 74% 30.07 in 10.0 mi NW 4.6 mph - N/A   Overcast
5:53 AM 18.0 °F 8.7 °F 12.9 °F 81% 30.08 in 10.0 mi West 6.9 mph - N/A   Overcast
6:53 AM 16.0 °F 5.3 °F 10.9 °F 81% 30.09 in 10.0 mi West 8.1 mph - N/A   Overcast
7:53 AM 12.9 °F 1.6 °F 8.1 °F 81% 30.11 in 8.0 mi West 8.1 mph - N/A   Overcast
8:53 AM 10.9 °F 1.4 °F 7.0 °F 84% 30.12 in 6.0 mi West 5.8 mph - N/A   Overcast
9:16 AM 12.2 °F 4.3 °F 8.6 °F 85% 30.07 in 6.0 mi WSW 4.6 mph - N/A   Overcast
9:53 AM 12.9 °F 2.6 °F 9.0 °F 84% 30.13 in 5.0 mi WSW 6.9 mph - N/A   Overcast
10:53 AM 12.0 °F -0.4 °F 8.1 °F 84% 30.14 in 3.0 mi WSW 9.2 mph - 0.00 in Snow Light Snow
11:07 AM 12.2 °F -1.0 °F 6.8 °F 79% 30.08 in 3.0 mi SW 10.4 mph - 0.00 in Snow Light Snow
11:29 AM 12.2 °F -0.2 °F 6.8 °F 79% 30.08 in 10.0 mi WSW 9.2 mph - 0.00 in   Scattered Clouds
11:53 AM 12.9 °F 1.6 °F 7.0 °F 77% 30.13 in 9.0 mi West 8.1 mph - 0.00 in   Partly Cloudy
12:53 PM 15.1 °F 6.4 °F 8.1 °F 74% 30.11 in 6.0 mi WSW 5.8 mph - N/A   Haze
1:53 PM 15.1 °F 5.2 °F 9.0 °F 77% 30.10 in 8.0 mi Variable 6.9 mph - N/A   Clear
2:37 PM 17.6 °F 6.4 °F 8.6 °F 68% 30.05 in 9.0 mi WSW 9.2 mph - N/A   Overcast
2:53 PM 16.0 °F 4.4 °F 9.0 °F 74% 30.11 in 9.0 mi West 9.2 mph - N/A   Overcast
3:53 PM 14.0 °F 2.9 °F 7.0 °F 74% 30.12 in 7.0 mi SSW 8.1 mph - N/A   Overcast
4:53 PM 14.0 °F 2.9 °F 7.0 °F 74% 30.13 in 8.0 mi West 8.1 mph - N/A   Overcast
5:53 PM 10.9 °F -2.6 °F 5.0 °F 77% 30.14 in 9.0 mi WSW 10.4 mph - N/A   Overcast
6:14 PM 10.4 °F -0.4 °F 3.2 °F 73% 30.09 in 8.0 mi WSW 6.9 mph - N/A   Scattered Clouds
6:53 PM 9.0 °F -3.2 °F 3.9 °F 80% 30.16 in 8.0 mi WSW 8.1 mph - N/A   Clear
7:53 PM 8.1 °F 1.4 °F 3.0 °F 80% 30.18 in 7.0 mi WSW 3.5 mph - N/A   Clear
8:53 PM 6.1 °F -4.3 °F 1.9 °F 83% 30.19 in 7.0 mi WSW 5.8 mph - N/A   Clear
9:53 PM 5.0 °F -2.1 °F 1.0 °F 84% 30.20 in 7.0 mi WSW 3.5 mph - N/A   Clear
10:53 PM 3.9 °F -6.9 °F -0.0 °F 84% 30.22 in 8.0 mi West 5.8 mph - N/A   Clear